Location: Taaricht
(32.5378°N, 5.4251°W)
Time: 00:56:45
(UTC+00:00)

Cosmos 921 Rocket - Pass Details

Date: 09 April 2020
Orbit: 572 x 632 km, 75.8° (Epoch: 06 June)

Event Time Altitude Azimuth Distance (km) Brightness Sun altitude
Rises 20:40:32 0° 345° (NNW) 2,782 7.0 -23.4°
Reaches altitude 10° 20:42:44 10° 346° (NNW) 1,884 6.1 -23.8°
Enters shadow 20:46:30 72° 345° (NNW) 609 3.0 -24.5°
